Weather History for Burlington, WA

Change the Weather History Date:

Tuesday, May 21, 2013

  Actual Average Record
Temperature  
Mean Temperature 48 °F -  
Max Temperature 53 °F 66 °F 89 °F (1963)
Min Temperature 42 °F 44 °F 35 °F (1973)
Degree Days  
Heating Degree Days 18    
Moisture  
Dew Point 49 °F    
Average Humidity 99    
Maximum Humidity 100    
Minimum Humidity 77    
Precipitation  
Precipitation 0.29 in - - ()
Sea Level Pressure  
Sea Level Pressure 29.84 in    
Wind  
Wind Speed 3 mph (SSW)    
Max Wind Speed 9 mph    
Max Gust Speed -    
Visibility 8 miles    
Events      
Averages and records for this station are not official NWS values.
T = Trace of Precipitation, MM = Missing Value Source: NWS Daily Summary

Daily Weather History Graph

Daily Weather History Graph

Search for Another Location

Airport:

Trip Planner

Search our weather history database for the weather conditions in past years. The results will help you decide how hot, cold, wet, or windy it might be!

Date:

Astronomy

May. 21, 2013 Rise Set
Actual Time 5:21 AM PDT 8:51 PM PDT
Civil Twilight 4:43 AM PDT 9:30 PM PDT
Nautical Twilight 3:51 AM PDT 10:22 PM PDT
Astronomical Twilight 2:42 AM PDT 11:32 PM PDT
Moon 4:55 PM PDT (5/21) 3:11 AM PDT (5/21)
Length of Visible Light 16h 47m
Length of Day
15h 29m
Waxing Gibbous, 85% of the Moon is Illuminated
May 21
Waxing Gibbous
May 24
Full
May 31
Last Quarter
Jun 8
New
Jun 16
First Quarter

Hourly Weather History & Observations

Time (PDT) Temp. Windchill Dew Point Humidity Pressure Visibility Wind Dir Wind Speed Gust Speed Precip Events Conditions
12:15 AM 51.8 °F - 50.0 °F 94% 29.92 in 10.0 mi Calm Calm - 0.00 in   Overcast
12:35 AM 51.8 °F - 51.8 °F 100% 29.91 in 10.0 mi Calm Calm - 0.00 in   Overcast
12:55 AM 51.8 °F - 51.8 °F 100% 29.91 in 10.0 mi NNW 5.8 mph - 0.00 in   Overcast
1:15 AM 51.8 °F - 51.8 °F 100% 29.90 in 9.0 mi WNW 9.2 mph - 0.00 in   Overcast
1:35 AM 51.8 °F - 51.8 °F 100% 29.89 in 8.0 mi WNW 6.9 mph - 0.01 in   Overcast
1:55 AM 50.0 °F - 50.0 °F 100% 29.88 in 10.0 mi WNW 9.2 mph - 0.01 in   Overcast
2:15 AM 50.0 °F - 50.0 °F 100% 29.88 in 8.0 mi NW 9.2 mph - 0.01 in   Overcast
2:35 AM 50.0 °F - 50.0 °F 100% 29.88 in 5.0 mi West 4.6 mph - 0.03 in   Overcast
2:55 AM 48.2 °F - 48.2 °F 100% 29.87 in 5.0 mi West 4.6 mph - 0.08 in   Overcast
3:15 AM 48.2 °F - 48.2 °F 100% 29.87 in 7.0 mi West 4.6 mph - 0.02 in   Overcast
3:35 AM 48.2 °F - 48.2 °F 100% 29.87 in 5.0 mi SW 5.8 mph - 0.05 in   Overcast
3:55 AM 48.2 °F - 48.2 °F 100% 29.86 in 6.0 mi Calm Calm - 0.06 in   Overcast
4:15 AM 48.2 °F - 48.2 °F 100% 29.86 in 5.0 mi SW 5.8 mph - 0.01 in   Overcast
4:35 AM 48.2 °F - 48.2 °F 100% 29.86 in 9.0 mi WSW 3.5 mph - 0.02 in   Overcast
4:55 AM 48.2 °F - 48.2 °F 100% 29.86 in 10.0 mi SSW 4.6 mph - 0.02 in   Overcast
5:15 AM 48.2 °F - 48.2 °F 100% 29.85 in 9.0 mi Calm Calm - 0.00 in   Overcast
5:35 AM 48.2 °F - 48.2 °F 100% 29.85 in 5.0 mi South 4.6 mph - 0.03 in   Overcast
5:55 AM 48.2 °F - 48.2 °F 100% 29.85 in 9.0 mi South 5.8 mph - 0.04 in   Overcast
6:15 AM 48.2 °F - 48.2 °F 100% 29.85 in 7.0 mi Calm Calm - 0.00 in   Overcast
6:35 AM 48.2 °F - 48.2 °F 100% 29.84 in 8.0 mi Calm Calm - 0.01 in   Mostly Cloudy
6:55 AM 48.2 °F - 48.2 °F 100% 29.85 in 10.0 mi SSW 5.8 mph - 0.01 in   Mostly Cloudy
7:15 AM 48.2 °F - 48.2 °F 100% 29.85 in 5.0 mi South 4.6 mph - 0.00 in   Overcast
7:35 AM 48.2 °F - 48.2 °F 100% 29.84 in 7.0 mi South 4.6 mph - 0.01 in   Overcast
7:55 AM 48.2 °F - 48.2 °F 100% 29.84 in 5.0 mi South 5.8 mph - 0.01 in   Overcast
8:15 AM 48.2 °F - 48.2 °F 100% 29.84 in 4.0 mi South 4.6 mph - 0.00 in   Overcast
8:35 AM 48.2 °F - 48.2 °F 100% 29.83 in 5.0 mi SW 4.6 mph - 0.02 in   Mostly Cloudy
8:55 AM 48.2 °F - 48.2 °F 100% 29.83 in 5.0 mi West 3.5 mph - 0.03 in   Overcast
9:15 AM 48.2 °F - 48.2 °F 100% 29.83 in 4.0 mi WSW 4.6 mph - 0.00 in   Overcast
9:35 AM 46.4 °F 45.2 °F 46.4 °F 100% 29.83 in 3.0 mi SW 3.5 mph - 0.01 in   Overcast
9:55 AM 46.4 °F 45.2 °F 46.4 °F 100% 29.83 in 6.0 mi WNW 3.5 mph - 0.01 in   Overcast
10:15 AM 46.4 °F 45.2 °F 46.4 °F 100% 29.83 in 6.0 mi SSW 3.5 mph - 0.00 in   Overcast
10:35 AM 48.2 °F - 48.2 °F 100% 29.83 in 3.0 mi SW 4.6 mph - 0.00 in   Overcast
10:55 AM 46.4 °F 44.3 °F 46.4 °F 100% 29.83 in 3.0 mi SW 4.6 mph - 0.00 in   Overcast
11:15 AM 46.4 °F 45.2 °F 46.4 °F 100% 29.83 in 4.0 mi SW 3.5 mph - 0.01 in   Overcast
11:35 AM 48.2 °F - 48.2 °F 100% 29.82 in 3.0 mi Calm Calm - 0.01 in   Overcast
11:55 AM 48.2 °F - 48.2 °F 100% 29.81 in 5.0 mi Calm Calm - 0.02 in   Overcast
12:15 PM 48.2 °F - 48.2 °F 100% 29.82 in 10.0 mi South 3.5 mph - 0.00 in   Mostly Cloudy
12:35 PM 48.2 °F - 48.2 °F 100% 29.82 in 10.0 mi SSW 4.6 mph - 0.00 in   Mostly Cloudy
12:55 PM 48.2 °F - 48.2 °F 100% 29.83 in 10.0 mi South 3.5 mph - 0.00 in   Overcast
1:15 PM 48.2 °F - 48.2 °F 100% 29.83 in 10.0 mi SSW 4.6 mph - 0.00 in   Overcast
1:35 PM 50.0 °F - 50.0 °F 100% 29.82 in 8.0 mi SSW 4.6 mph - 0.00 in   Overcast
1:55 PM 50.0 °F - 50.0 °F 100% 29.83 in 10.0 mi South 4.6 mph - 0.00 in   Mostly Cloudy
2:15 PM 50.0 °F - 50.0 °F 100% 29.83 in 9.0 mi South 4.6 mph - 0.00 in   Mostly Cloudy
2:35 PM 50.0 °F - 50.0 °F 100% 29.83 in 10.0 mi Calm Calm - 0.00 in   Overcast
2:55 PM 50.0 °F - 50.0 °F 100% 29.82 in 10.0 mi SE 8.1 mph - 0.00 in   Overcast
3:15 PM 50.0 °F - 50.0 °F 100% 29.83 in 10.0 mi SE 4.6 mph - 0.00 in   Overcast
3:35 PM 50.0 °F - 50.0 °F 100% 29.83 in 10.0 mi SE 5.8 mph - 0.00 in   Overcast
3:55 PM 51.8 °F - 51.8 °F 100% 29.82 in 10.0 mi ESE 4.6 mph - 0.00 in   Mostly Cloudy
4:15 PM 51.8 °F - 51.8 °F 100% 29.82 in 10.0 mi ESE 3.5 mph - 0.00 in   Overcast
4:35 PM 51.8 °F - 51.8 °F 100% 29.82 in 10.0 mi SE 3.5 mph - 0.00 in   Mostly Cloudy
4:55 PM 51.8 °F - 51.8 °F 100% 29.82 in 10.0 mi East 3.5 mph - 0.00 in   Mostly Cloudy
5:15 PM 53.6 °F - 50.0 °F 88% 29.82 in 10.0 mi Calm Calm - 0.00 in   Mostly Cloudy
5:35 PM 53.6 °F - 50.0 °F 88% 29.82 in 10.0 mi East 3.5 mph - 0.00 in   Overcast
5:55 PM 53.6 °F - 48.2 °F 82% 29.81 in 10.0 mi Calm Calm - 0.00 in   Overcast
6:15 PM 53.6 °F - 46.4 °F 77% 29.81 in 10.0 mi Calm Calm - 0.00 in   Partly Cloudy
6:35 PM 53.6 °F - 51.8 °F 94% 29.81 in 10.0 mi ESE 4.6 mph - 0.00 in   Mostly Cloudy
6:55 PM 53.6 °F - 51.8 °F 94% 29.81 in 10.0 mi East 3.5 mph - 0.00 in   Overcast
7:15 PM 53.6 °F - 51.8 °F 94% 29.82 in 10.0 mi East 4.6 mph - 0.00 in   Overcast
7:35 PM 53.6 °F - 51.8 °F 94% 29.82 in 10.0 mi Calm Calm - 0.00 in   Overcast
7:55 PM 51.8 °F - 51.8 °F 100% 29.83 in 10.0 mi Calm Calm - 0.00 in   Mostly Cloudy
8:15 PM 51.8 °F - 51.8 °F 100% 29.83 in 10.0 mi Calm Calm - 0.00 in   Overcast
8:35 PM 50.0 °F - 50.0 °F 100% 29.84 in 10.0 mi Calm Calm - 0.00 in   Scattered Clouds
8:55 PM 48.2 °F - 48.2 °F 100% 29.84 in 10.0 mi Calm Calm - 0.00 in   Clear
9:15 PM 46.4 °F - 46.4 °F 100% 29.84 in 10.0 mi Calm Calm - 0.00 in   Clear
9:35 PM 46.4 °F - 46.4 °F 100% 29.85 in 10.0 mi Calm Calm - 0.00 in   Clear
9:55 PM 46.4 °F - 46.4 °F 100% 29.85 in 10.0 mi Calm Calm - 0.00 in   Clear
10:15 PM 44.6 °F - 44.6 °F 100% 29.85 in 10.0 mi Calm Calm - 0.00 in   Partly Cloudy
10:35 PM 42.8 °F - 42.8 °F 100% 29.85 in 2.0 mi Calm Calm - 0.00 in   Mostly Cloudy
10:55 PM 44.6 °F - 44.6 °F 100% 29.86 in 10.0 mi Calm Calm - 0.00 in   Mostly Cloudy
11:15 PM 44.6 °F - 44.6 °F 100% 29.86 in 10.0 mi Calm Calm - 0.00 in   Overcast
11:35 PM 46.4 °F - 46.4 °F 100% 29.87 in 10.0 mi Calm Calm - 0.00 in   Overcast
11:55 PM 46.4 °F - 46.4 °F 100% 29.87 in 10.0 mi Calm Calm - 0.00 in   Overcast